Miscellaneous Local Product
Issued by NWS Hastings, NE

Home | Current Version | Previous Version | Text Only | Print | Product List | Glossary On
Versions: 1 2 3 4 5 6 7 8 9 10 11 12 13 14 15 16 17 18 19 20 21 22 23 24 25 26 27 28 29 30 31 32 33 34 35 36 37 38 39 40 41 42 43 44 45 46 47 48 49 50
929
AXUS43 KGID 041802
MISGRI

GID CWA HOURLY WEATHER ROUNDUP
NATIONAL WEATHER SERVICE HASTINGS NE
1200 PM CST SUN DEC 04 2016

NOTE: "FAIR" INDICATES FEW OR NO CLOUDS BELOW 12,000 FEET WITH NO
SIGNIFICANT WEATHER AND/OR OBSTRUCTIONS TO VISIBILITY.

...SOUTH CENTRAL NEBRASKA...

CITY           SKY/WX    TMP DP  RH WIND       PRES   REMARKS
GRAND ISLAND   SUNNY     42  32  67 W9        29.97F
HASTINGS       SUNNY     39  32  76 W10       29.98F WCI  32
KEARNEY        SUNNY     43  27  52 SW7       29.97F
ORD            SUNNY     46  22  38 NW9       29.93F
YORK           SUNNY     37  32  81 W8        29.97F WCI  31
AURORA         SUNNY     41  34  74 W6        29.96F
LEXINGTON      SUNNY     46  23  41 W8        29.97F
HOLDREGE       SUNNY     42  31  65 W7        29.98F
HEBRON         CLOUDY    32  31  96 W7        30.00F FOG     WCI  26

...NEBRASKA PANHANDLE...

CITY           SKY/WX    TMP DP  RH WIND       PRES   REMARKS
CHADRON        SUNNY     42  14  32 VRB7      29.89F
ALLIANCE       SUNNY     43  17  35 W15G22    29.90F
SCOTTSBLUFF    SUNNY     46  15  28 W16G24    29.91F
SIDNEY         SUNNY     45  11  25 W10       29.95F

...WESTERN AND NORTH CENTRAL NEBRASKA...

CITY           SKY/WX    TMP DP  RH WIND       PRES   REMARKS
VALENTINE      SUNNY     45  19  35 NW14      29.89F
AINSWORTH      SUNNY     45  23  42 W10       29.90F
ONEILL         SUNNY     45  29  52 W8        29.91F
BROKEN BOW     SUNNY     47  24  40 W12       29.93F
IMPERIAL       SUNNY     45  17  32 W16       29.98F
NORTH PLATTE   SUNNY     45  20  36 W9        29.96F
MCCOOK         SUNNY     45  22  40 W9        30.00F

...EASTERN NEBRASKA...

CITY           SKY/WX    TMP DP  RH WIND       PRES   REMARKS
NORFOLK        SUNNY     45  31  58 W9        29.90F
SO SIOUX CITY  SUNNY     44  34  67 W8        29.91F
TEKAMAH        SUNNY     34  30  85 SW7       29.94F WCI  28
COLUMBUS       SUNNY     43  32  65 W7        29.94F
ALBION         SUNNY     45  31  58 NW7       29.92F
OMAHA EPPLEY   MOSUNNY   36  31  82 SW7       29.96F WCI  30
OFFUTT AFB     CLOUDY    36  36  99 W8        29.96F WCI  30
MILLARD        CLOUDY    35  32  89 SW6       29.98S WCI  30
LINCOLN        CLOUDY    33  31  92 SW9       29.99F WCI  25
NEBRASKA CITY  CLOUDY    37  34  89 SW15      29.98F WCI  28
BEATRICE       CLOUDY    35  33  92 W8        29.99F WCI  28
FALLS CITY     CLOUDY    36  34  92 W12       29.99F WCI  28

...NORTHERN KANSAS...

CITY           SKY/WX    TMP DP  RH WIND       PRES   REMARKS
GOODLAND       SUNNY     46  12  25 NW7       30.02F
HILL CITY      SUNNY     47  27  45 NW8       30.03F
NORTON         CLEAR     48  19  32 W10G17    29.99F
PHILLIPSBURG   SUNNY     43  30  61 W10       30.02F
SMITH CENTER   SUNNY     36  30  80 W8        30.02F WCI  29
BELOIT         SUNNY     37  30  75 W9        30.03F WCI  31
HAYS           SUNNY     41  29  62 NW15      30.04F
RUSSELL        SUNNY     42  29  59 NW14      30.02F
CONCORDIA      PTSUNNY   36  34  92 W9        30.02F WCI  29
SALINA         MOSUNNY   44  37  76 NW7       30.04F
TOPEKA         CLOUDY    40  36  86 W14       30.02F WCI  32



USA.gov is the U.S. government's official web portal to all federal, state and local government web resources and services.